[[{"header":{"parameterUnit":"m.s-1","parameterCategory":1,"la1":30.2992,"la2":30.254,"lo1":-89.0895,"lo2":-89.0443,"dy":0.0025,"dx":0.0025,"nx":19,"ny":19,"refTime":"2026-03-30T03:00:00:Z","depth":0,"parameterNumber":2,"parameterNumberName":"U-component_of_WINDS"},"data":[0,0,0,-2.912,-2.912,-2.9083,-2.9083,-2.9059,-2.9059,0,0,0,0,0,0,0,0,0,0,0,-2.9144,-2.9144,-2.912,-2.912,-2.9083,-2.9083,-2.9059,-2.9059,0,0,0,0,0,0,0,0,0,0,0,-2.9144,-2.9144,-2.9144,-2.912,-2.9083,-2.9083,-2.9059,-2.9078,0,0,0,0,0,0,0,0,0,0,-2.911,-2.9144,-2.9144,-2.9144,-2.9119,-2.9084,-2.9083,-2.9079,-2.9077,-2.9084,0,-2.9094,0,-2.9076,-2.9058,-2.9058,0,0,0,-2.911,-2.9145,-2.9124,-2.9144,-2.9119,-2.9084,-2.9097,-2.9078,-2.9076,-2.9082,-2.9094,-2.9092,-2.9076,-2.9058,-2.9058,-2.9135,-2.9136,0,0,-2.9112,-2.9144,-2.9126,-2.9124,-2.9131,-2.9098,-2.9096,-2.9076,-2.9091,-2.9094,-2.9091,-2.9076,-2.9058,-2.9058,-2.9134,-2.9136,0,0,0,-2.9124,-2.9146,-2.9124,-2.9125,-2.9117,-2.9097,-2.9095,-2.9091,-2.9082,-2.9091,-2.9075,-2.9058,-2.9058,-2.9134,-2.9135,-2.9206,0,0,0,-2.9125,-2.9153,-2.9126,-2.9145,-2.9118,-2.9104,-2.9111,-2.9083,-2.908,-2.9075,-2.9058,-2.9058,-2.9133,-2.9134,-2.9202,-2.9233,0,0,0,-2.9142,-2.9155,-2.9154,-2.9147,-2.9133,-2.9103,-2.9092,-2.9082,-2.9071,-2.9058,-2.9058,-2.9132,-2.9134,-2.9198,-2.9227,-2.9263,0,0,0,-2.9169,-2.9217,-2.9156,-2.9204,-2.9133,-2.9149,-2.9092,-2.9101,-2.9099,-2.9058,-2.9133,-2.9135,-2.9197,-2.9224,-2.9259,-2.9297,-2.9316,0,0,-2.9247,-2.9227,-2.9254,-2.9198,-2.9232,-2.9151,-2.9196,-2.9163,-2.9133,-2.9136,-2.9138,-2.9203,-2.9227,-2.9262,-2.9416,-2.9432,0,0,0,-2.9289,-2.9308,-2.9311,-2.9311,-2.9288,-2.9271,-2.9229,-2.9217,-2.9219,-2.9141,-2.9226,-2.9239,-2.9258,-2.9274,-2.9287,-2.9302,-2.9144,-2.9144,-2.9144,-2.9444,-2.9404,-2.9445,-2.9401,-2.9403,-2.936,-2.9357,-2.9335,-2.9292,-2.9314,-2.9313,-2.9412,-2.9432,-2.9442,-2.9457,-2.9332,-2.9332,-2.9332,-2.9333,-2.9555,-2.9575,-2.9521,-2.9541,-2.9499,-2.9516,-2.9478,-2.9449,-2.9458,-2.9408,-2.9423,-2.937,-2.946,-2.9472,-2.9337,-2.9337,-2.9336,-2.9336,-2.9335,-2.965,-2.9652,-2.9639,-2.9637,-2.9641,-2.9596,-2.9608,-2.957,-2.9533,-2.9548,-2.9544,-2.9543,-2.9535,-2.955,-2.955,-2.955,-2.9551,-2.9551,-2.9551,-2.9752,-2.9735,-2.975,-2.9734,-2.973,-2.9721,-2.9682,-2.9677,-2.9662,-2.9633,-2.9633,-2.9589,-2.9478,-2.9449,-2.9556,-2.9555,-2.9555,-2.9554,-2.9554,-2.9875,-2.9842,-2.9865,-2.9862,-2.984,-2.9847,-2.98,-2.9795,-2.9786,-2.9793,-2.9748,-2.9673,-2.9649,-2.9638,-2.9614,-2.9757,-2.9757,-2.9757,-2.9757,-2.9954,-2.994,-2.9955,-2.9953,-2.9947,-2.9908,-2.9936,-2.9908,-2.9874,-2.9866,-2.9841,-2.9807,-2.9798,-2.9779,-2.9765,-2.9742,-2.9915,-2.9915,-2.9915,-3.0027,-3.0011,-3.0041,-3.0008,-2.9989,-2.9975,-3.0,-3.0001,-2.9955,-2.992,-2.9859,-2.9852,-2.9797,-2.9782,-2.9742,-2.9721,-2.9678,0,0]},{"header":{"parameterUnit":"m.s-1","parameterCategory":1,"la1":30.2992,"la2":30.254,"lo1":-89.0895,"lo2":-89.0443,"dy":0.0025,"dx":0.0025,"nx":19,"ny":19,"refTime":"2026-03-30T03:00:00:Z","depth":0,"parameterNumber":3,"parameterNumberName":"V-component_of_WINDS"},"data":[0,0,0,3.0396,3.0395,3.0382,3.0382,3.0357,3.0357,0,0,0,0,0,0,0,0,0,0,0,3.0394,3.0394,3.0396,3.0395,3.0382,3.0382,3.0357,3.0357,0,0,0,0,0,0,0,0,0,0,0,3.0395,3.0394,3.0394,3.0395,3.0382,3.0382,3.0357,3.037,0,0,0,0,0,0,0,0,0,0,3.0384,3.0378,3.0394,3.0394,3.0395,3.0382,3.0382,3.0371,3.0369,3.036,0,3.035,0,3.0353,3.0355,3.0355,0,0,0,3.0399,3.0379,3.0381,3.0394,3.0395,3.0382,3.0389,3.037,3.0368,3.0358,3.0349,3.0349,3.0352,3.0355,3.0354,3.0287,3.0287,0,0,3.04,3.0389,3.0382,3.0379,3.0381,3.039,3.0389,3.0369,3.0359,3.0349,3.0348,3.0352,3.0354,3.0354,3.0288,3.0287,0,0,0,3.0399,3.0389,3.0391,3.038,3.0378,3.0389,3.0388,3.036,3.0362,3.0348,3.0352,3.0354,3.0354,3.0288,3.0288,3.0254,0,0,0,3.04,3.0389,3.0392,3.0385,3.0378,3.0369,3.0379,3.0363,3.0361,3.0352,3.0354,3.0353,3.0289,3.0288,3.0257,3.0241,0,0,0,3.0397,3.0389,3.0385,3.0384,3.0378,3.037,3.037,3.0363,3.0363,3.0355,3.0353,3.0289,3.0288,3.0258,3.0244,3.0221,0,0,0,3.0391,3.0354,3.0385,3.0346,3.0378,3.0349,3.037,3.0349,3.0337,3.0354,3.0289,3.0288,3.0259,3.0246,3.0223,3.0201,3.0191,0,0,3.0339,3.0348,3.0326,3.0353,3.0315,3.0352,3.031,3.0308,3.0317,3.0297,3.0295,3.0256,3.0244,3.0222,3.0134,3.0126,0,0,0,3.0306,3.0291,3.0283,3.0272,3.0271,3.0269,3.0276,3.0276,3.026,3.0304,3.0241,3.0235,3.0222,3.0212,3.0205,3.0196,3.0282,3.0282,3.0283,3.0218,3.0232,3.0198,3.021,3.0199,3.0208,3.02,3.0202,3.0217,3.0203,3.0197,3.0142,3.013,3.0125,3.0115,3.0185,3.0185,3.0185,3.0185,3.0145,3.0126,3.015,3.0125,3.014,3.0119,3.0126,3.0139,3.0122,3.0147,3.0137,3.0164,3.0115,3.0108,3.0183,3.0183,3.0183,3.0184,3.0184,3.009,3.0083,3.0085,3.0072,3.006,3.0074,3.0058,3.0072,3.0084,3.0074,3.0071,3.0071,3.0075,3.0071,3.0071,3.0071,3.0071,3.0071,3.0071,3.0033,3.0035,3.002,3.0017,3.0013,3.001,3.0019,3.0015,3.0015,3.0026,3.0026,3.0045,3.0108,3.0124,3.0068,3.0068,3.0069,3.0069,3.0069,2.9956,2.9976,2.9952,2.9948,2.9947,2.9936,2.9954,2.9946,2.9945,2.9937,2.9958,3.0002,3.0012,3.0017,3.0031,2.9954,2.9954,2.9954,2.9954,2.991,2.9917,2.9897,2.989,2.9885,2.99,2.9874,2.9881,2.9891,2.9892,2.9905,2.9924,2.9929,2.9936,2.9943,2.9957,2.9862,2.9862,2.9862,2.9865,2.9872,2.9847,2.9858,2.9859,2.9859,2.9836,2.9828,2.9843,2.9859,2.9893,2.9897,2.9928,2.9937,2.9953,2.9964,2.9989,0,0]}]]